Date String (YYYY-MM-DD hh:mm:ss) UTC,Instrument flags,Ambient pressure (hPa),Sample flow (lpm),Bypass flow (lpm),Sample temperature (°C),Ambient temperature (°C),ASC tube jacket temperature (°C),LED temperature (°C),Box temperature (°C),Sample RH (%),Span deviation,Mass concentration (μg/m³),Mass concentration (μg/m³),Mass concentration (μg/m³)
DateTimeUTC,F1_M11,P_M11,Q1_M11,Q2_M11,T1_M11,T2_M11,T3_M11,T4_M11,T5_M11,U1_M11,ZSPAN_M11,X0_M11,X2_M11,X1_M11
2022-06-27 15:00:00,,0835.1,4.99,0.00,29.9,28.8,00.0,38.7,31.8,25.8,0000.0,0009.55,0005.26,0004.51
2022-06-27 15:01:00,,0835.0,5.00,0.00,29.9,28.8,00.0,38.7,31.8,25.7,0000.0,0009.77,0005.23,0004.52
2022-06-27 15:02:00,,0835.1,5.01,0.00,29.9,28.9,00.0,38.7,31.8,25.7,0000.0,0009.85,0005.22,0004.53
2022-06-27 15:03:00,,0835.0,5.00,0.00,29.9,28.9,00.0,38.7,31.8,26.1,0000.0,0009.96,0005.27,0004.55
2022-06-27 15:04:00,,0835.0,5.00,0.00,29.9,28.9,00.0,38.8,31.8,26.2,0000.0,0010.00,0005.26,0004.55
2022-06-27 15:05:00,,0835.0,5.01,0.00,30.0,29.0,00.0,38.8,31.8,26.0,0000.0,0009.92,0005.26,0004.57
2022-06-27 15:06:00,,0835.0,5.00,0.00,30.0,29.0,00.0,38.8,31.9,25.8,0000.0,0009.84,0005.28,0004.59
2022-06-27 15:07:00,,0835.1,5.00,0.00,30.0,29.0,00.0,38.8,31.9,26.1,0000.0,0009.66,0005.26,0004.60
2022-06-27 15:08:00,,0835.0,5.00,0.00,30.0,29.0,00.0,38.8,31.9,25.6,0000.0,0009.84,0005.26,0004.61
2022-06-27 15:09:00,,0835.0,5.00,0.00,30.0,29.0,00.0,38.8,31.9,25.5,0000.0,0009.79,0005.26,0004.62
2022-06-27 15:10:00,,0835.0,5.00,0.00,30.0,28.6,00.0,38.8,31.8,25.6,0000.0,0010.53,0005.31,0004.64
2022-06-27 15:11:00,,0835.0,5.01,0.00,29.9,27.8,00.0,38.7,31.6,25.4,0000.0,0010.47,0005.31,0004.66
2022-06-27 15:12:00,,0835.0,5.01,0.00,29.9,27.6,00.0,38.6,31.5,25.7,0000.0,0010.33,0005.37,0004.69
2022-06-27 15:13:00,,0835.1,5.00,0.00,29.8,27.6,00.0,38.6,31.4,26.1,0000.0,0010.02,0005.39,0004.72
2022-06-27 15:14:00,,0835.0,4.99,0.00,29.8,27.6,00.0,38.6,31.4,26.2,0000.0,0010.03,0005.38,0004.73
2022-06-27 15:15:00,,0835.0,4.99,0.00,29.7,27.8,00.0,38.6,31.4,26.0,0000.0,0009.99,0005.38,0004.74
2022-06-27 15:16:00,,0835.0,5.00,0.00,29.7,27.9,00.0,38.6,31.5,26.1,0000.0,0010.04,0005.41,0004.76
2022-06-27 15:17:00,,0835.0,5.01,0.00,29.7,28.0,00.0,38.6,31.5,26.1,0000.0,0010.14,0005.46,0004.78
2022-06-27 15:18:00,,0835.0,5.01,0.00,29.7,28.1,00.0,38.6,31.5,26.2,0000.0,0010.62,0005.49,0004.80
2022-06-27 15:19:00,,0835.0,5.00,0.00,29.7,28.2,00.0,38.6,31.5,26.5,0000.0,0010.90,0005.50,0004.82
2022-06-27 15:20:00,,0835.0,4.99,0.00,29.7,28.3,00.0,38.6,31.5,26.9,0000.0,0010.97,0005.54,0004.84
2022-06-27 15:21:00,,0835.0,5.01,0.00,29.7,28.4,00.0,38.6,31.5,26.5,0000.0,0010.47,0005.58,0004.87
2022-06-27 15:22:00,,0835.0,5.01,0.00,29.7,28.5,00.0,38.6,31.6,26.3,0000.0,0010.53,0005.63,0004.88
2022-06-27 15:23:00,,0835.0,5.00,0.00,29.7,28.5,00.0,38.6,31.6,26.0,0000.0,0010.50,0005.61,0004.88
2022-06-27 15:24:00,,0835.0,4.99,0.00,29.7,28.6,00.0,38.6,31.6,25.4,0000.0,0010.52,0005.62,0004.86
2022-06-27 15:25:00,,0835.0,5.00,0.00,29.7,28.6,00.0,38.6,31.6,25.3,0000.0,0010.51,0005.62,0004.86
2022-06-27 15:26:00,,0835.0,5.00,0.00,29.8,28.7,00.0,38.6,31.7,25.4,0000.0,0010.60,0005.61,0004.86
2022-06-27 15:27:00,,0835.0,5.00,0.00,29.8,28.7,00.0,38.6,31.7,25.5,0000.0,0010.58,0005.63,0004.86
2022-06-27 15:28:00,,0835.0,5.01,0.00,29.8,28.8,00.0,38.6,31.7,25.4,0000.0,0010.63,0005.62,0004.85
2022-06-27 15:29:00,,0835.0,4.99,0.00,29.8,28.8,00.0,38.6,31.7,25.5,0000.0,0010.59,0005.62,0004.84
2022-06-27 15:30:00,,0834.9,5.00,0.00,29.8,28.8,00.0,38.6,31.7,25.7,0000.0,0010.53,0005.61,0004.84
2022-06-27 15:31:00,,0834.9,5.00,0.00,29.8,28.9,00.0,38.6,31.8,25.8,0000.0,0011.08,0005.59,0004.84
2022-06-27 15:32:00,,0835.0,5.00,0.00,29.9,28.7,00.0,38.6,31.7,26.0,0000.0,0011.35,0005.56,0004.84
2022-06-27 15:33:00,,0834.9,5.01,0.00,29.8,27.9,00.0,38.5,31.5,26.1,0000.0,0011.37,0005.54,0004.86
2022-06-27 15:34:00,,0834.9,5.00,0.00,29.7,27.5,00.0,38.5,31.4,25.9,0000.0,0011.59,0005.54,0004.87
2022-06-27 15:35:00,,0834.9,4.99,0.00,29.7,27.4,00.0,38.5,31.3,25.6,0000.0,0011.72,0005.53,0004.88
2022-06-27 15:36:00,,0834.9,5.00,0.00,29.6,27.4,00.0,38.5,31.3,25.7,0000.0,0011.76,0005.56,0004.90
2022-06-27 15:37:00,,0834.9,5.00,0.00,29.6,27.5,00.0,38.4,31.3,26.0,0000.0,0012.62,0005.60,0004.92
2022-06-27 15:38:00,,0834.8,5.00,0.00,29.5,27.7,00.0,38.4,31.3,25.9,0000.0,0013.04,0005.61,0004.94
2022-06-27 15:39:00,,0834.8,5.00,0.00,29.5,27.8,00.0,38.4,31.3,25.6,0000.0,0012.94,0005.60,0004.95
2022-06-27 15:40:00,,0834.8,5.01,0.00,29.5,27.9,00.0,38.4,31.3,25.9,0000.0,0012.90,0005.62,0004.95
2022-06-27 15:41:00,,0834.8,5.00,0.00,29.5,28.0,00.0,38.4,31.4,26.3,0000.0,0012.74,0005.65,0004.96
2022-06-27 15:42:00,,0834.8,4.99,0.00,29.5,28.1,00.0,38.4,31.4,26.3,0000.0,0012.55,0005.69,0004.99
2022-06-27 15:43:00,,0834.8,5.01,0.00,29.5,28.2,00.0,38.4,31.4,26.4,0000.0,0012.40,0005.73,0005.01
2022-06-27 15:44:00,,0834.8,5.00,0.00,29.6,28.3,00.0,38.4,31.4,26.0,0000.0,0012.27,0005.76,0005.03
2022-06-27 15:45:00,,0834.8,5.01,0.00,29.6,28.4,00.0,38.4,31.5,25.9,0000.0,0012.21,0005.82,0005.06
2022-06-27 15:46:00,,0834.7,4.99,0.00,29.6,28.5,00.0,38.4,31.5,25.8,0000.0,0012.53,0005.88,0005.09
2022-06-27 15:47:00,,0834.7,4.99,0.00,29.6,28.5,00.0,38.4,31.5,25.7,0000.0,0012.59,0005.88,0005.12
2022-06-27 15:48:00,,0834.7,5.00,0.00,29.6,28.6,00.0,38.4,31.5,25.7,0000.0,0011.94,0005.90,0005.15
2022-06-27 15:49:00,,0834.6,5.01,0.00,29.6,28.6,00.0,38.4,31.5,25.7,0000.0,0011.52,0005.91,0005.16
2022-06-27 15:50:00,,0834.7,5.01,0.00,29.7,28.7,00.0,38.5,31.6,25.3,0000.0,0012.09,0005.93,0005.18
2022-06-27 15:51:00,,0834.7,5.00,0.00,29.7,28.7,00.0,38.5,31.6,25.5,0000.0,0012.08,0005.96,0005.20
2022-06-27 15:52:00,,0834.6,5.00,0.00,29.7,28.6,00.0,38.5,31.6,25.2,0000.0,0011.82,0005.98,0005.22
2022-06-27 15:53:00,,0834.7,4.99,0.00,29.7,28.0,00.0,38.4,31.4,25.7,0000.0,0011.74,0006.01,0005.22
2022-06-27 15:54:00,,0834.7,5.00,0.00,29.6,27.4,00.0,38.3,31.3,26.0,0000.0,0011.64,0006.01,0005.24
2022-06-27 15:55:00,,0834.7,5.00,0.00,29.5,27.3,00.0,38.3,31.2,26.3,0000.0,0011.72,0006.02,0005.25
2022-06-27 15:56:00,,0834.7,5.01,0.00,29.5,27.3,00.0,38.3,31.2,26.5,0000.0,0012.34,0006.00,0005.26
2022-06-27 15:57:00,,0834.7,5.01,0.00,29.4,27.4,00.0,38.3,31.2,26.9,0000.0,0011.97,0006.00,0005.28
2022-06-27 15:58:00,,0834.7,5.00,0.00,29.4,27.5,00.0,38.3,31.2,27.1,0000.0,0012.15,0006.06,0005.30
2022-06-27 15:59:00,,0834.7,4.99,0.00,29.4,27.7,00.0,38.3,31.2,27.2,0000.0,0012.60,0006.09,0005.32
